📊 ESP Weather Station

Last reading: 2021-06-15 23:23:37

TEMPERATURE

--

Temperature 20 readings
Min Max Average
15.02 °C 19.01 °C 17.42 °C

HUMIDITY

--

Humidity 20 readings
Min Max Average
55.52 % 75.15 % 65.44 %

View Latest 20 Readings

ID Sensor Location Value 1 Value 2 Value 3 Timestamp
59251 BME280 Virbalis 15.02 75.15 1011.09 2021-06-15 23:23:37
59250 BME280 Virbalis 15.30 74.51 1011.15 2021-06-15 23:13:35
59249 BME280 Virbalis 15.64 74.50 1010.94 2021-06-15 23:03:33
59248 BME280 Virbalis 16.02 72.02 1010.92 2021-06-15 22:53:32
59247 BME280 Virbalis 16.17 70.94 1010.83 2021-06-15 22:43:30
59246 BME280 Virbalis 16.53 70.72 1010.80 2021-06-15 22:33:28
59245 BME280 Virbalis 16.72 68.65 1010.72 2021-06-15 22:23:27
59244 BME280 Virbalis 16.97 67.16 1010.63 2021-06-15 22:13:25
59243 BME280 Virbalis 17.23 63.85 1010.45 2021-06-15 22:03:24
59242 BME280 Virbalis 17.58 60.98 1010.41 2021-06-15 21:53:22
59241 BME280 Virbalis 17.76 59.58 1010.36 2021-06-15 21:43:20
59240 BME280 Virbalis 17.95 56.81 1010.26 2021-06-15 21:33:19
59239 BME280 Virbalis 18.17 56.16 1010.12 2021-06-15 21:23:17
59238 BME280 Virbalis 18.40 55.52 1010.07 2021-06-15 21:13:16
59237 BME280 Virbalis 18.57 59.40 1009.94 2021-06-15 21:03:14
59236 BME280 Virbalis 18.75 61.25 1009.95 2021-06-15 20:53:12
59235 BME280 Virbalis 18.81 65.22 1009.77 2021-06-15 20:43:11
59234 BME280 Virbalis 18.83 63.00 1009.77 2021-06-15 20:33:09
59233 BME280 Virbalis 18.91 65.04 1009.77 2021-06-15 20:23:08
59232 BME280 Virbalis 19.01 68.31 1009.70 2021-06-15 20:13:06